| time (UTC) | temp F | wind direction | speed knots | gust knots | rain 1hr in | rain 24hr in | rain mn in | humidity % | barometer mb |
| 20260903080438 | 73 | 113 | 0.0 | 0.0 | 0.00 | 0.02 | 0.00 | 93 | 1016.5 |
| 20260903075438 | 73 | 113 | 0.0 | 0.0 | 0.00 | 0.02 | 0.00 | 93 | 1016.4 |
| 20260903074438 | 73 | 113 | 0.0 | 0.0 | 0.00 | 0.02 | 0.00 | 93 | 1016.5 |
| 20260903073438 | 73 | 113 | 0.0 | 0.0 | 0.00 | 0.02 | 0.00 | 93 | 1016.4 |
| 20260903072438 | 73 | 113 | 0.0 | 0.0 | 0.00 | 0.02 | 0.00 | 93 | 1016.4 |
| 20260903071438 | 73 | 113 | 0.0 | 0.0 | 0.00 | 0.02 | 0.00 | 92 | 1016.4 |
| 20260903070508 | 74 | 113 | 0.0 | 0.0 | 0.00 | 0.02 | 0.00 | 93 | 1016.4 |
| 20260903065438 | 74 | 113 | 0.0 | 0.0 | 0.00 | 0.02 | 0.00 | 93 | 1016.4 |
| 20260903064508 | 74 | 113 | 0.0 | 0.0 | 0.00 | 0.02 | 0.00 | 93 | 1016.4 |
| 20260903063438 | 74 | 113 | 0.0 | 0.0 | 0.00 | 0.02 | 0.00 | 92 | 1016.6 |
| 20260903062508 | 74 | 113 | 0.0 | 0.0 | 0.00 | 0.02 | 0.00 | 92 | 1016.4 |
| 20260903061438 | 74 | 113 | 0.0 | 0.0 | 0.00 | 0.02 | 0.00 | 92 | 1016.6 |
| 20260903060438 | 74 | 113 | 0.0 | 0.0 | 0.00 | 0.02 | 0.00 | 92 | 1016.8 |
| 20260903055438 | 74 | 113 | 0.0 | 0.0 | 0.00 | 0.02 | 0.00 | 92 | 1016.9 |
| 20260903054438 | 74 | 113 | 0.0 | 0.0 | 0.00 | 0.02 | 0.00 | 92 | 1017.1 |
| 20260903053438 | 74 | 113 | 0.0 | 0.0 | 0.00 | 0.02 | 0.00 | 92 | 1017.1 |
| 20260903052438 | 74 | 113 | 0.0 | 0.0 | 0.00 | 0.02 | 0.00 | 92 | 1017.0 |
| 20260903051438 | 74 | 113 | 0.0 | 0.0 | 0.00 | 0.02 | 0.00 | 92 | 1017.2 |
| 20260903050438 | 74 | 113 | 0.0 | 0.0 | 0.00 | 0.02 | 0.00 | 92 | 1017.1 |
| 20260903045438 | 74 | 113 | 0.0 | 0.0 | 0.00 | 0.02 | 0.00 | 92 | 1017.1 |
| 20260903044508 | 74 | 113 | 0.0 | 0.0 | 0.00 | 0.02 | 0.00 | 92 | 1017.0 |
| 20260903043438 | 74 | 113 | 0.0 | 0.0 | 0.00 | 0.02 | 0.00 | 92 | 1016.9 |
| 20260903042438 | 74 | 113 | 0.0 | 0.0 | 0.00 | 0.02 | 0.00 | 93 | 1017.0 |
| 20260903041438 | 74 | 113 | 0.0 | 0.0 | 0.00 | 0.02 | 0.00 | 93 | 1017.0 |
| 20260903040438 | 74 | 113 | 0.0 | 0.0 | 0.00 | 0.02 | 0.02 | 93 | 1017.1 |
| 20260903035438 | 74 | 113 | 0.0 | 0.0 | 0.00 | 0.02 | 0.02 | 93 | 1017.2 |
| 20260903034438 | 74 | 113 | 0.0 | 0.0 | 0.00 | 0.02 | 0.02 | 93 | 1017.1 |
| 20260903033438 | 73 | 113 | 0.0 | 0.0 | 0.00 | 0.02 | 0.02 | 93 | 1017.1 |
| 20260903032508 | 73 | 113 | 0.0 | 0.0 | 0.00 | 0.02 | 0.02 | 93 | 1017.1 |
| 20260903031438 | 73 | 113 | 0.0 | 0.0 | 0.00 | 0.02 | 0.02 | 92 | 1017.1 |
| 20260903030438 | 73 | 113 | 0.0 | 0.0 | 0.00 | 0.02 | 0.02 | 93 | 1016.8 |
| 20260903025438 | 73 | 113 | 0.0 | 0.0 | 0.00 | 0.02 | 0.02 | 92 | 1016.8 |
| 20260903024438 | 73 | 113 | 0.0 | 0.0 | 0.00 | 0.02 | 0.02 | 92 | 1016.9 |
| 20260903023439 | 73 | 113 | 0.0 | 0.0 | 0.00 | 0.02 | 0.02 | 92 | 1016.9 |
| 20260903022438 | 73 | 113 | 0.0 | 0.0 | 0.00 | 0.02 | 0.02 | 92 | 1016.8 |
| 20260903021438 | 73 | 113 | 0.0 | 0.0 | 0.00 | 0.02 | 0.02 | 92 | 1017.0 |
| 20260903020438 | 73 | 113 | 0.0 | 0.0 | 0.00 | 0.02 | 0.02 | 92 | 1017.4 |
| 20260903014538 | 73 | 113 | 0.0 | 0.0 | 0.00 | 0.02 | 0.02 | 92 | 1017.5 |
| 20260903013438 | 73 | 113 | 0.0 | 0.0 | 0.00 | 0.02 | 0.02 | 92 | 1017.4 |
| 20260903012438 | 73 | 113 | 0.0 | 0.0 | 0.00 | 0.02 | 0.02 | 92 | 1017.3 |
| 20260903010508 | 73 | 113 | 0.0 | 0.0 | 0.00 | 0.02 | 0.02 | 92 | 1017.2 |
| 20260903005438 | 73 | 113 | 0.0 | 0.0 | 0.00 | 0.02 | 0.02 | 91 | 1017.3 |
| 20260903004438 | 73 | 113 | 0.0 | 0.0 | 0.00 | 0.02 | 0.02 | 91 | 1017.2 |
| 20260903002438 | 73 | 113 | 0.0 | 0.0 | 0.00 | 0.02 | 0.02 | 91 | 1016.9 |
| 20260903001438 | 73 | 113 | 0.0 | 0.0 | 0.00 | 0.02 | 0.02 | 91 | 1016.6 |
| 20260903000508 | 73 | 113 | 0.0 | 0.0 | 0.00 | 0.02 | 0.02 | 91 | 1016.6 |
| 20260902235438 | 74 | 113 | 0.0 | 0.0 | 0.00 | 0.02 | 0.02 | 91 | 1016.8 |
| 20260902234508 | 74 | 113 | 0.0 | 0.0 | 0.00 | 0.02 | 0.02 | 91 | 1016.8 |
| 20260902232438 | 74 | 113 | 0.0 | 0.0 | 0.00 | 0.02 | 0.02 | 90 | 1017.2 |
| 20260902230438 | 74 | 113 | 0.0 | 0.0 | 0.00 | 0.02 | 0.02 | 90 | 1017.2 |
| 20260902225438 | 75 | 111 | 0.0 | 0.0 | 0.00 | 0.02 | 0.02 | 89 | 1017.1 |
| 20260902224438 | 75 | 105 | 0.0 | 0.0 | 0.00 | 0.02 | 0.02 | 89 | 1016.9 |
| 20260902223438 | 75 | 99 | 0.0 | 0.0 | 0.00 | 0.02 | 0.02 | 89 | 1016.9 |
| 20260902222439 | 75 | 123 | 0.0 | 0.0 | 0.00 | 0.02 | 0.02 | 89 | 1016.9 |
| 20260902221438 | 75 | 76 | 0.0 | 0.0 | 0.00 | 0.02 | 0.02 | 88 | 1016.9 |
| 20260902220439 | 75 | 76 | 0.0 | 0.0 | 0.00 | 0.02 | 0.02 | 88 | 1017.1 |
| 20260902215438 | 75 | 76 | 0.0 | 0.0 | 0.00 | 0.02 | 0.02 | 88 | 1016.8 |
| 20260902214439 | 75 | 76 | 0.0 | 0.0 | 0.00 | 0.02 | 0.02 | 88 | 1017.2 |
| 20260902213439 | 76 | 76 | 0.0 | 0.0 | 0.00 | 0.02 | 0.02 | 88 | 1017.5 |
| 20260902212509 | 76 | 76 | 0.0 | 0.0 | 0.00 | 0.02 | 0.02 | 87 | 1017.5 |
| 20260902211439 | 75 | 76 | 0.0 | 0.0 | 0.00 | 0.02 | 0.02 | 88 | 1017.3 |
| 20260902210439 | 75 | 76 | 0.0 | 0.0 | 0.00 | 0.02 | 0.02 | 88 | 1017.6 |
| 20260902205439 | 75 | 61 | 0.0 | 0.0 | 0.00 | 0.02 | 0.02 | 88 | 1017.6 |
| 20260902204439 | 75 | 61 | 0.0 | 0.0 | 0.00 | 0.02 | 0.02 | 88 | 1018.0 |
| 20260902203439 | 75 | 61 | 0.0 | 0.0 | 0.00 | 0.02 | 0.02 | 89 | 1018.3 |
| 20260902202509 | 75 | 61 | 0.0 | 0.0 | 0.00 | 0.02 | 0.02 | 88 | 1018.1 |
| 20260902200439 | 75 | 61 | 0.0 | 0.0 | 0.00 | 0.02 | 0.02 | 88 | 1017.9 |
| 20260902194509 | 76 | 61 | 0.0 | 0.0 | 0.02 | 0.02 | 0.02 | 87 | 1018.2 |
| 20260902193439 | 76 | 61 | 0.0 | 1.7 | 0.02 | 0.02 | 0.02 | 85 | 1018.2 |
| 20260902192439 | 77 | 331 | 0.0 | 0.0 | 0.02 | 0.02 | 0.02 | 88 | 1018.0 |
| 20260902191439 | 76 | 331 | 0.0 | 0.0 | 0.02 | 0.02 | 0.02 | 87 | 1018.3 |
| 20260902190439 | 77 | 331 | 0.0 | 0.0 | 0.02 | 0.02 | 0.02 | 83 | 1018.4 |
| 20260902185439 | 81 | 298 | 0.9 | 2.6 | 0.00 | 0.00 | 0.00 | 79 | 1019.1 |
| 20260902184439 | 83 | 138 | 1.7 | 2.6 | 0.00 | 0.00 | 0.00 | 80 | 1019.5 |
| 20260902183439 | 83 | 320 | 0.0 | 0.0 | 0.00 | 0.00 | 0.00 | 81 | 1018.9 |
| 20260902182439 | 84 | 320 | 0.0 | 0.9 | 0.00 | 0.00 | 0.00 | 78 | 1018.9 |
| 20260902181439 | 85 | 320 | 0.0 | 0.0 | 0.00 | 0.00 | 0.00 | 80 | 1018.8 |
| 20260902180439 | 85 | 342 | 0.0 | 1.7 | 0.00 | 0.00 | 0.00 | 78 | 1018.6 |
| 20260902175439 | 85 | 225 | 0.0 | 0.0 | 0.00 | 0.00 | 0.00 | 79 | 1018.6 |
| 20260902174439 | 84 | 150 | 0.0 | 0.0 | 0.00 | 0.00 | 0.00 | 78 | 1018.5 |
| 20260902173439 | 85 | 80 | 0.0 | 0.9 | 0.00 | 0.00 | 0.00 | 78 | 1018.3 |
| 20260902172439 | 84 | 160 | 0.9 | 2.6 | 0.00 | 0.00 | 0.00 | 78 | 1018.4 |
| 20260902171439 | 84 | 108 | 0.0 | 2.6 | 0.00 | 0.00 | 0.00 | 78 | 1018.4 |
| 20260902170439 | 84 | 63 | 0.0 | 2.6 | 0.00 | 0.00 | 0.00 | 77 | 1018.2 |
| 20260902164439 | 83 | 111 | 0.0 | 1.7 | 0.00 | 0.00 | 0.00 | 79 | 1018.0 |
| 20260902162439 | 83 | 226 | 0.9 | 1.7 | 0.00 | 0.00 | 0.00 | 79 | 1018.2 |
| 20260902161439 | 83 | 226 | 0.0 | 0.9 | 0.00 | 0.00 | 0.00 | 79 | 1018.2 |
| 20260902160439 | 83 | 25 | 0.0 | 0.0 | 0.00 | 0.00 | 0.00 | 80 | 1018.3 |
| 20260902155439 | 83 | 19 | 0.0 | 0.9 | 0.00 | 0.00 | 0.00 | 81 | 1018.1 |
| 20260902154439 | 82 | 15 | 1.7 | 1.7 | 0.00 | 0.00 | 0.00 | 81 | 1018.2 |
| 20260902153439 | 82 | 52 | 0.0 | 1.7 | 0.00 | 0.00 | 0.00 | 81 | 1018.2 |
| 20260902152439 | 82 | 36 | 0.0 | 1.7 | 0.00 | 0.00 | 0.00 | 81 | 1018.2 |
| 20260902151439 | 81 | 55 | 0.9 | 1.7 | 0.00 | 0.00 | 0.00 | 82 | 1018.2 |
| 20260902150439 | 81 | 64 | 0.9 | 0.9 | 0.00 | 0.00 | 0.00 | 82 | 1018.2 |
| 20260902145439 | 81 | 55 | 1.7 | 1.7 | 0.00 | 0.00 | 0.00 | 82 | 1018.3 |
| 20260902144439 | 80 | 82 | 1.7 | 1.7 | 0.00 | 0.00 | 0.00 | 82 | 1018.2 |
| 20260902143439 | 81 | 57 | 0.0 | 2.6 | 0.00 | 0.00 | 0.00 | 83 | 1018.1 |
| 20260902142439 | 80 | 35 | 0.0 | 1.7 | 0.00 | 0.00 | 0.00 | 83 | 1018.0 |
| 20260902141439 | 80 | 69 | 0.9 | 1.7 | 0.00 | 0.00 | 0.00 | 83 | 1018.1 |
| 20260902140439 | 80 | 186 | 0.0 | 0.9 | 0.00 | 0.00 | 0.00 | 84 | 1018.0 |
| 20260902135439 | 80 | 186 | 0.0 | 0.9 | 0.00 | 0.00 | 0.00 | 84 | 1018.1 |
| 20260902134439 | 80 | 284 | 0.0 | 0.0 | 0.00 | 0.00 | 0.00 | 84 | 1017.9 |
| 20260902133439 | 80 | 336 | 0.9 | 1.7 | 0.00 | 0.00 | 0.00 | 84 | 1017.8 |
| 20260902132439 | 80 | 350 | 0.0 | 0.0 | 0.00 | 0.00 | 0.00 | 86 | 1017.6 |
| 20260902130439 | 80 | 347 | 0.0 | 0.0 | 0.00 | 0.00 | 0.00 | 87 | 1017.5 |
| 20260902125439 | 80 | 347 | 0.0 | 0.9 | 0.00 | 0.00 | 0.00 | 87 | 1017.5 |
| 20260902124439 | 80 | 348 | 0.0 | 0.0 | 0.00 | 0.00 | 0.00 | 88 | 1017.4 |
| 20260902123439 | 80 | 348 | 0.0 | 0.0 | 0.00 | 0.00 | 0.00 | 88 | 1017.5 |
| 20260902122439 | 79 | 343 | 0.0 | 0.0 | 0.00 | 0.00 | 0.00 | 90 | 1017.5 |
| 20260902121439 | 79 | 343 | 0.0 | 0.0 | 0.00 | 0.00 | 0.00 | 90 | 1017.4 |
| 20260902120509 | 78 | 343 | 0.0 | 0.0 | 0.00 | 0.00 | 0.00 | 91 | 1017.4 |
| 20260902115439 | 78 | 343 | 0.0 | 0.0 | 0.00 | 0.00 | 0.00 | 92 | 1017.3 |
| 20260902114439 | 77 | 343 | 0.0 | 0.0 | 0.00 | 0.00 | 0.00 | 92 | 1017.3 |
| 20260902113439 | 77 | 343 | 0.0 | 0.0 | 0.00 | 0.00 | 0.00 | 92 | 1017.3 |
| 20260902112439 | 77 | 343 | 0.0 | 0.0 | 0.00 | 0.00 | 0.00 | 92 | 1017.2 |
| 20260902111439 | 76 | 138 | 0.0 | 0.0 | 0.00 | 0.00 | 0.00 | 92 | 1017.1 |
| 20260902110439 | 76 | 138 | 0.0 | 0.0 | 0.00 | 0.00 | 0.00 | 92 | 1017.0 |
| 20260902105439 | 76 | 292 | 0.0 | 0.0 | 0.00 | 0.00 | 0.00 | 92 | 1016.9 |
| 20260902104439 | 76 | 231 | 0.0 | 0.0 | 0.00 | 0.00 | 0.00 | 92 | 1016.8 |
| 20260902103439 | 76 | 32 | 0.0 | 0.0 | 0.00 | 0.00 | 0.00 | 92 | 1016.9 |
| 20260902102439 | 76 | 32 | 0.0 | 0.0 | 0.00 | 0.00 | 0.00 | 92 | 1016.8 |
| 20260902101439 | 76 | 32 | 0.0 | 0.0 | 0.00 | 0.00 | 0.00 | 92 | 1016.6 |
| 20260902100439 | 76 | 32 | 0.0 | 0.0 | 0.00 | 0.00 | 0.00 | 92 | 1016.6 |
| 20260902094509 | 76 | 32 | 0.0 | 0.0 | 0.00 | 0.00 | 0.00 | 91 | 1016.5 |
| 20260902093439 | 76 | 32 | 0.0 | 0.0 | 0.00 | 0.00 | 0.00 | 91 | 1016.5 |
| 20260902092439 | 76 | 32 | 0.0 | 0.0 | 0.00 | 0.00 | 0.00 | 91 | 1016.5 |
| 20260902090439 | 77 | 32 | 0.0 | 0.0 | 0.00 | 0.00 | 0.00 | 91 | 1016.6 |
| 20260902085439 | 77 | 32 | 0.0 | 0.0 | 0.00 | 0.00 | 0.00 | 90 | 1016.5 |
| 20260902084439 | 77 | 32 | 0.0 | 0.0 | 0.00 | 0.00 | 0.00 | 90 | 1016.5 |
| 20260902083439 | 77 | 32 | 0.0 | 0.0 | 0.00 | 0.00 | 0.00 | 89 | 1016.4 |
| 20260902082439 | 77 | 32 | 0.0 | 0.0 | 0.00 | 0.00 | 0.00 | 89 | 1016.3 |